Regional Weather Roundup
Issued by NWS Wakefield, VA

Home | Current Version | Previous Version | Graphics & Text | Print | Product List | Glossary On
Versions: 1 2 3 4 5 6 7 8 9 10 11 12 13 14 15 16 17 18 19 20 21 22 23 24 25 26 27
000
ASUS41 KAKQ 240215
RWRAKQ

REGIONAL WEATHER ROUNDUP
NATIONAL WEATHER SERVICE WAKEFIELD VA
900 PM EST THU NOV 23 2017

Note: "fair" indicates few or no clouds below 12,000 feet with no
significant weather and/or obstructions to visibility. * = Denotes
station may not report precipitation (e.g., rain,snow,etc.),
thunder or fog.

VAZ042-051-052>054-056-240300-
NORTHERN VIRGINIA

CITY           SKY/WX    TMP DP  RH WIND       PRES   REMARKS
WASH NATIONAL  CLEAR     38  26  62 SW3       30.08R
DULLES         CLEAR     31  25  78 S5        30.07R
FORT BELVOIR   CLEAR     29  24  80 CALM      30.08R
QUANTICO       NOT AVBL
FREDERICKSBRG* CLEAR     32  28  84 CALM      30.08S
STAFFORD*      CLEAR     27  26  94 CALM      30.12R
WARRENTON      NOT AVBL
CULPEPER*      CLEAR     28  24  82 CALM      30.08S
MANASSAS*      CLEAR     28  25  88 CALM      30.08R
LEESBURG*      CLEAR     34  28  80 S3        30.07R
WINCHESTER     CLEAR     28  23  80 CALM      30.03S
FRONT ROYAL*   CLEAR     30  25  80 CALM      30.03R
LURAY*         CLEAR     32  28  86 S3        30.03S
$$

VAZ048-049-060>072-079>083-240300-
CENTRAL AND SOUTH CENTRAL VIRGINIA

CITY           SKY/WX    TMP DP  RH WIND       PRES   REMARKS
RICHMOND       PTCLDY    30  24  78 CALM      30.08F
CHESTERFIELD*  NOT AVBL
PETERSBURG*    CLEAR    N/A N/A N/A CALM      30.09F
HANOVER        CLEAR     29  27  92 CALM      30.09S
TAPPAHANNOCK*    N/A    N/A N/A N/A MISG        N/A
QUINTON*       FAIR      30  28  92 CALM      30.08F
CHARLOTTSVILLE CLEAR     37  26  64 S5        30.06R
GORDONSVILLE*  CLEAR     28  26  90 CALM      30.06F
ORANGE*        CLEAR     28  25  86 CALM      30.07S
LOUISA*        CLEAR     26  23  87 S3        30.11S
BUMPASS*       FAIR      28  25  86 SW5       30.08R
FARMVILLE*     CLEAR     32  30  92 CALM      30.06S
CREWE*         FAIR      27  27 100 CALM      30.08S
FORT PICKETT*  FAIR      32  27  80 CALM      30.07F
CHASE CITY*    FAIR      30  28  90 CALM      30.07F
CLARKSVILLE*   FAIR      32  32 100 CALM      30.07F
SOUTH HILL*    CLEAR     31  29  94 CALM      30.13F
LAWRENCEVILLE* FAIR      32  30  90 CALM      30.08F
EMPORIA*       CLOUDY    32  30  93 CALM      30.10F
$$

VAZ088>098-240300-
SOUTHEAST VIRGINIA

CITY           SKY/WX    TMP DP  RH WIND       PRES   REMARKS
NORFOLK        CLOUDY    40  33  76 CALM      30.08F
VIRGINIA BEACH CLOUDY    37  31  78 CALM      30.08F
NORFOLK NAVAL  MOCLDY    36  30  79 CALM      30.10F
WEST POINT*    PTCLDY    29  26  89 CALM      30.11S
SALUDA*        FAIR      31  29  92 CALM      30.08F
NEWPORT NEWS   PTCLDY    31  28  89 CALM      30.10S
LANGLEY AFB    PTCLDY    34  30  85 CALM      30.09S
FORT EUSTIS    CLOUDY    33  29  85 CALM      30.07S
WILLIAMSBURG*  PTCLDY    34  30  86 CALM      30.10S
HR EXEC AP*    NOT AVBL
FRANKLIN*      PTCLDY    31  29  92 CALM      30.09F
US460-WAKEFLD  PTCLDY    30  29  96 CALM      30.09F
$$

VAZ020-022-025-037-045-240300-
WEST CENTRAL AND SOUTHWEST VIRGINIA

CITY           SKY/WX    TMP DP  RH WIND       PRES   REMARKS
STAUNTON*      CLEAR     27  22  81 CALM      30.05S
WAYNESBORO*    CLEAR     32  24  71 CALM      30.02S
HOT SPRINGS VA CLEAR     36  11  35 W12       29.97S
LYNCHBURG      CLEAR     31  24  75 W3        30.06R
DANVILLE       CLEAR     29  26  89 CALM      30.07S
SOUTH BOSTON*  FAIR      30  27  89 CALM      30.08F
MARTINSVILLE   CLEAR     28  24  82 CALM      30.08F
ROANOKE        CLEAR     35  25  66 CALM      30.07R
BLACKSBURG     CLEAR     32  24  71 CALM      30.06R
DUBLIN*        CLEAR     34  23  63 CALM      30.04R
MARION*        CLEAR     34  26  72 CALM      30.04S
HILLSVILLE*    CLEAR     38  25  58 SW6       30.01R
RICHLANDS*     FAIR      40  16  37 CALM      30.02S
WISE*          CLEAR     37  23  56 CALM      30.02F
ABINGDON*      CLEAR     38  32  79 CALM      30.02S
$$

MDZ021>025-VAZ099-100-240300-
SOUTHERN MARYLAND AND THE DELMARVA PENINSULA

CITY           SKY/WX    TMP DP  RH WIND       PRES   REMARKS
PATUXENT RIVER CLEAR     31  25  78 SW6       30.08R
BAY BRIDGE APT CLEAR     32  30  93 CALM      30.07S
LEONARDTOWN    CLEAR     30  27  86 CALM      30.09R
DOVER          CLEAR     32  27  82 SW3       30.06S
GEORGETOWN     CLEAR     29  24  82 CALM      30.08S
EASTON         CLEAR     32  25  74 CALM      30.11R
CAMBRIDGE      CLEAR     28  25  86 CALM      30.08S
SALISBURY      CLEAR     28  26  92 CALM      30.07F
OCEAN CITY     CLEAR     30  27  88 CALM      30.09S
WALLOPS ISLAND CLEAR     30  27  88 CALM      30.09S
ACCOMACK*      CLOUDY    30  29  94 CALM      30.09R
$$

NCZ012>017-030>032-240300-
NORTH CENTRAL AND EASTERN NORTH CAROLINA

CITY           SKY/WX    TMP DP  RH WIND       PRES   REMARKS
ROANOKE RAPIDS FAIR      34  32  93 CALM      30.08F
RALEIGH        PTCLDY    34  29  82 CALM      30.07F
ELIZABETH CITY MOCLDY    42  37  82 E5        30.09F
AHOSKIE*       PTCLDY    35  33  94 CALM      30.09F
EDENTON*       MOCLDY    42  37  81 CALM      30.09F
CURRITUCK*     MOCLDY    39  37  91 CALM      30.10S
KILL DEVIL HLS MOCLDY    44  36  73 CALM      30.07S
MANTEO         MOCLDY    44  37  76 N5        30.08F
CAPE HATTERAS  CLOUDY    50  43  77 N8        30.05S
TARBORO*       NOT AVBL
GOLDSBORO      PTCLDY    42  35  78 E3        30.06S
WASHINGTON     CLOUDY    41  37  83 NE5       30.08F
GREENVILLE     CLOUDY    41  37  87 CALM      30.10S
NEW BERN       CLOUDY    44  40  85 NE7       30.07F
WILMINGTON     MOCLDY    47  41  80 N9        30.05S
$$

VAZ048-240300-
ELSEWHERE

CITY           SKY/WX    TMP DP  RH WIND       PRES   REMARKS
HARRISBURG PA  PTCLDY    33  25  72 CALM      30.04R
BALTIMORE      CLEAR     30  23  75 CALM      30.07R
ANNAPOLIS      NOT AVBL
ANDREWS AFB    CLEAR     29  23  78 S3        30.06R
PHILADELPHIA   CLEAR     38  20  48 W5        30.06R
GREENSBORO     PTCLDY    37  29  72 CALM      30.05S
ROCKY MOUNT    PTCLDY    36  34  92 CALM      30.07F
$$

VAZ100-240300-
MARINE

STATION/POSITION TIME  TEMP    WIND        PRES    WAVE   SWELL
                       AIR SEA DIR/SP/G            HT/PER HT/PER
                 (UTC) (F)     (DEG/KT/KT) (MB)    (FT/S) (FT/S)
BRANDYWINE LGT   0136   41     280/  8/ 11 1018.5R
CAPE MAY NJ      0136   40 50  310/  7/  9 1017.7R
LEWES DE         0136   34 49  210/  4/  5 1018.2R
15NM E FENWICK I 0050   42 57  280/ 10/ 14 1018.7    3/10   3/10
OCEAN-CITY-INLET 0136   37 50  290/  4/  5 1018.9F
WACHAPREAGUE VA  0136   34 49     CALM     1018.9S
THOMAS POINT MD  0200   42 51  230/  7/  8   N/A
GOOSES REEF MD   0150   43     290/  8/ 10 1018.9R
COVE POINT MD    0136   40     270/  3/  5 1018.9R
SOLOMONS ISLAND  0136   39 53  330/  3/  3 1018.0S
BISHOPS HEAD MD  0136   42 47  170/  1/  4 1018.5F
PINEY POINT MD   0148          240/  6/  8   N/A
POTOMAC MD       0150   43     230/  8/ 10 1017.9F
CAMBRIDGE MD     0136   33 49              1019.1R
LEWISETTA VA     0136   38 48  240/  2/  3 1018.5F
RAPPAHANNOCK LGT 0148          270/  7/  8 1019.3S
STINGRAY PT      0150   42     290/  6/  8 1019.0S
YORK RVR RNG VA  0136   43     310/  3/  5 1019.5R
YORKTOWN VA      0136   40 53  270/  2/  2 1018.7R
JAMESTOWN VA     0150           60/  2/  4   N/A
DOMINION TERM VA 0136   43      40/  2/  3 1019.2F
KIPTOPEKE VA     0136      52   70/  2/  4   N/A
CAPE HENRY VA    0136   42     280/  3/  5   N/A
WILLOUBY STN VA  0136   44     330/  5/  6 1018.8F
S CRANEY ISL VA  0136   42     270/  1/  2 1018.8F
CAPE HENRY BUOY  0130      59                N/A     3/ 9   2/11
1ST LANDING BUOY 0150   44     330/  6/  8 1018.8F
CAPE CHARLES BUO 0151      57                N/A     3/ 9   2/11
64NM E OF VA BCH 0050   46 59  330/  8/ 12 1019.0    5/10   5/10
DUCK PIER NC     0136   46 58  360/  6/  7 1018.2F
44100 DUCK FRF   0115      60                N/A     4/10   2/11
44056 DUCK FRF   0130      60                N/A     4/ 9   2/11
OREGON INLET NC  0148           10/  5/ 11 1018.0F
HATTERAS NC      0136   51 58   20/ 13/ 16 1017.2F
DIAMOND SHLS NC  0150   57 71   20/ 12/ 17 1016.8F   5/ 9   5/ 9
CAPE LOOKOUT NC  0200           10/  9/ 12 1017.4R
$$




USA.gov is the U.S. government's official web portal to all federal, state and local government web resources and services.